CDT,Max TemperatureF,Mean TemperatureF,Min TemperatureF,Max Dew PointF,MeanDew PointF,Min DewpointF,Max Humidity, Mean Humidity, Min Humidity, Max Sea Level PressureIn, Mean Sea Level PressureIn, Min Sea Level PressureIn, Max VisibilityMiles, Mean VisibilityMiles, Min VisibilityMiles, Max Wind SpeedMPH, Mean Wind SpeedMPH, Max Gust SpeedMPH,PrecipitationIn, CloudCover, Events, WindDirDegrees
2012-8-1,100,87,73,68,64,61,58,44,29,30.02,29.84,29.73,10,10,3,40,8,54,0.10,1,Rain-Thunderstorm,69
2012-8-2,93,83,73,69,65,61,73,57,41,29.83,29.79,29.69,10,10,10,45,11,55,T,0,Rain,44
2012-8-3,101,88,74,70,67,61,82,55,27,29.84,29.76,29.67,10,10,7,21,8,26,0.08,2,Rain-Thunderstorm,86
2012-8-4,85,75,65,69,63,53,71,60,48,30.07,29.89,29.68,10,10,10,25,12,31,T,1,Rain,349
2012-8-5,93,76,59,59,53,49,80,52,23,30.23,30.16,30.09,10,10,10,13,6,17,0.00,0,,32
2012-8-6,101,81,61,58,53,48,67,44,21,30.13,30.02,29.90,10,10,10,16,8,25,0.00,0,,163
2012-8-7,90,79,67,66,58,48,78,54,29,30.05,29.95,29.88,10,10,10,25,7,31,0.04,1,Rain-Thunderstorm,223
2012-8-8,104,85,65,65,57,37,87,49,11,29.98,29.91,29.81,10,10,10,22,7,26,0.00,0,,326
2012-8-9,90,78,66,64,58,52,78,55,31,30.02,29.97,29.89,10,10,10,24,12,32,0.00,0,,358
2012-8-10,88,75,62,57,53,45,78,51,23,30.12,30.04,29.99,10,10,10,20,7,23,0.00,0,,12
2012-8-11,92,75,57,52,48,42,67,43,18,30.08,29.97,29.86,10,10,10,18,7,24,0.00,0,,151
2012-8-12,93,81,69,58,53,45,61,44,26,29.98,29.88,29.84,10,10,10,28,14,33,0.00,0,,349
2012-8-13,85,72,59,57,54,51,80,56,32,30.15,30.05,29.99,10,10,10,20,8,23,0.00,1,,2
2012-8-14,78,71,63,63,60,54,93,73,53,30.08,30.00,29.89,10,8,2,21,9,25,0.00,5,Rain,158
2012-8-15,96,78,60,68,63,57,90,63,36,29.91,29.82,29.70,10,10,9,20,10,28,0.00,0,,177
2012-8-16,82,72,62,67,54,49,68,53,38,30.13,30.00,29.78,10,10,10,28,14,32,T,1,,350
2012-8-17,82,68,54,54,47,42,83,55,26,30.15,30.08,29.97,10,10,10,10,3,14,0.00,2,,360
2012-8-18,86,74,61,52,48,45,56,43,29,30.01,29.94,29.85,10,10,10,14,5,21,0.00,2,,120
2012-8-19,82,69,56,51,47,39,80,52,24,30.07,30.02,29.96,10,10,10,16,8,20,0.00,1,,16
2012-8-20,90,71,51,48,44,41,72,46,19,30.06,30.00,29.93,10,10,10,12,4,20,0.00,0,,162
2012-8-21,94,76,57,53,45,43,56,37,18,30.04,29.99,29.96,10,10,10,17,6,26,0.00,0,,190
2012-8-22,94,77,60,60,51,46,73,47,21,30.03,29.97,29.88,10,10,10,26,13,35,0.00,0,,186
2012-8-23,96,84,71,67,58,49,79,54,29,29.94,29.89,29.81,10,10,6,29,15,37,0.25,4,Rain-Thunderstorm,163
2012-8-24,80,73,66,70,66,62,90,80,69,29.96,29.86,29.78,10,7,2,24,14,33,0.98,7,Rain-Thunderstorm,121
2012-8-25,78,73,68,72,69,63,97,88,79,29.90,29.83,29.77,10,8,1,24,7,32,1.25,7,Rain-Thunderstorm,135
2012-8-26,84,77,70,68,67,65,97,76,55,30.06,29.97,29.87,10,9,4,13,5,15,T,5,Rain,349
2012-8-27,91,78,65,68,65,62,93,67,41,30.16,30.09,30.04,10,9,6,10,3,13,0.00,0,,124
2012-8-28,93,78,62,64,60,55,87,59,30,30.14,30.06,29.98,10,10,8,14,6,18,0.00,0,,181
2012-8-29,94,78,62,63,60,57,84,57,30,30.06,29.96,29.88,10,10,10,17,7,22,0.00,0,,184
2012-8-30,97,81,65,61,56,49,84,52,20,29.95,29.90,29.85,10,10,10,14,5,18,0.00,0,,149
2012-8-31,93,79,65,66,62,58,81,58,34,29.96,29.92,29.88,10,10,9,18,6,24,0.00,0,,34